Overview Statistics Trail Chart Weather Telemetry Raw packets
 

This is the latest recevied weather packets stored in our database for station/object KI4HRG. If no packets are shown the sender has not sent any weather packets the latest 10 day(s).

<< 1 2 3 4 5 6 7 >>
Time Temp. Humidity Pressure Rain* Wind** Luminosity Snow
1788558162 35.56° C 52% 1013.2 hPa 0 mm - 58 W/m² -
1788557859 35.56° C 51% 1013.2 hPa 0 mm - 75 W/m² -
1788557555 35.56° C 50% 1013.1 hPa 0 mm - 62 W/m² -
1788557251 35.56° C 51% 1013.4 hPa 0 mm - 64 W/m² -
1788556945 35.56° C 49% 1013.3 hPa 0 mm - 167 W/m² -
1788556645 36.11° C 50% 1013.2 hPa 0 mm - 172 W/m² -
1788556340 36.11° C 51% 1013.1 hPa 0 mm - 333 W/m² -
1788556035 35.56° C 51% 1013.3 hPa 0 mm - 359 W/m² -
1788555730 36.11° C 51% 1013.4 hPa 0 mm - 367 W/m² -
1788555426 35.56° C 51% 1013.3 hPa 0 mm - 332 W/m² -
1788555122 35° C 51% 1013.4 hPa 0 mm - 363 W/m² -
1788554842 35.56° C 49% 1013.5 hPa 0 mm - 456 W/m² -
1788554514 36.11° C 49% 1013.6 hPa 0 mm - 488 W/m² -
1788554210 36.67° C 49% 1013.7 hPa 0 mm - 426 W/m² -
1788553906 36.67° C 49% 1013.5 hPa 0 mm - 450 W/m² -
1788553601 36.11° C 50% 1013.6 hPa 0 mm - 406 W/m² -
1788553298 36.11° C 51% 1013.5 hPa 0 mm - 435 W/m² -
1788552992 36.11° C 51% 1013.7 hPa 0 mm - 537 W/m² -
1788552687 36.67° C 49% 1013.9 hPa 0 mm - 581 W/m² -
1788552387 36.67° C 48% 1013.8 hPa 0 mm - 545 W/m² -
1788552081 36.67° C 48% 1013.9 hPa 0 mm - 543 W/m² -
1788551775 36.11° C 49% 1014.1 hPa 0 mm - 555 W/m² -
1788551474 36.67° C 48% 1014.2 hPa 0 mm - 553 W/m² -
1788551168 35.56° C 52% 1014.1 hPa 0 mm - 542 W/m² -
1788550863 36.11° C 52% 1014.3 hPa 0 mm - 575 W/m² -

* Rain latest hour (hover to see other rain measurements)
** Current wind speed in m/s (hover to see current wind gust speed)